Tracking 29040 objects as of 15-Jun-2024
HD Live streaming from Space Station
objects crossing your sky now

SOLRAD 11A

Track SOLRAD 11A now!
SOLRAD 11A is classified as:


NORAD ID: 8748
Int'l Code: 1976-023C
Perigee: 117,148.3 km
Apogee: 119,810.0 km
Inclination: 17.3 °
Period: 7,317.2 minutes
Semi major axis: 124850 km
RCS: Unknown
Launch date: March 15, 1976
Source: United States (US)
Launch site: AIR FORCE EASTERN TEST RANGE (AFETR)
Your satellite tracking list
Your tracking list is empty




NASA's NSSDC Master Catalog

Two Line Element Set (TLE):
1 08748U 76023C   24167.84162873 -.00000876  00000-0  00000-0 0  9996
2 08748  17.3237 337.9388 0106594 165.3319   0.5639  0.19679743  4032
Source of the keplerian elements: AFSPC